Weather in Bellevue

United States     47°36′01″N   122°09′32″W
temp.,
°C
wind,
m/s
gust,
m/s
humid.,
%
clouds,
%
prec.,
mm/h
press.,
hPa
HPBL,
m
23 may, mon
mon2323:00+13ese0164100 0.0 1022130
02:00+12ese117465 0.0 102133
05:00+11sse247799 0.0 1022195
08:00+13ssw246596 0.0 1022413
11:00+16ssw344874 0.0 10221394
14:00+17ssw234799 0.0 10211768
17:00+17nnw115367 0.2 10211131
20:00+14n246686 0.4 1020198
24 may, tue
tue2423:00+12ene247598 0.4 1020294
02:00+11sse238361 0.0 1020352
05:00+9s2488100 0.0 1021281
08:00+10s3578100 0.0 1019540
11:00+15ssw3455100 0.0 10191127
14:00+19sw3535100 0.0 10171720
17:00+14sw3655100 0.0 1016623
20:00+12ssw2464100 0.0 1016357
25 may, wed
wed2523:00+12s1370100 0.0 1016237
02:00+11s1371100 0.0 1016183
05:00+11s1271100 0.0 1015151
08:00+11sse2573100 0.0 1016322
11:00+16sw355786 0.0 10161421
14:00+21wsw453976 0.0 10141754
17:00+21wsw3538100 0.0 10131641
20:00+17wnw2356100 0.0 1013103
26 may, thu
thu2623:00+14sw1165100 0.0 101333
02:00+12w1169100 0.0 101227
05:00+12nne1174100 0.0 101138
08:00+14wnw1166100 0.0 1010227
11:00+17sw3454100 0.0 1010587
14:00+17ssw3566100 0.1 1011834
17:00+14sw1394100 0.9 1010253
20:00+12ssw289571 0.2 1011494
27 may, fri
fri2723:00+12s289596 0.2 1012433
02:00+12s3897100 1.1 1013459
05:00+10s31296100 2.1 1014547
08:00+11s31091100 0.2 1015759
11:00+12ssw4993100 1.4 1015603
14:00+16ssw4761100 0.7 10151471
17:00+16ssw4557100 1.4 10141397
20:00+13sse247946 0.4 1013179